Weather History for KTMB - November, 2011

Change the Weather History Date:

Wednesday, November 9, 2011

  Actual Average (KMIA) Record (KMIA)
Temperature  
Mean Temperature 72 °F 76 °F  
Max Temperature 82 °F 83 °F 89 °F (1989)
Min Temperature 63 °F 69 °F 51 °F (1923)
Degree Days  
Heating Degree Days 0 0  
Month to date heating degree days 0  
Since 1 July heating degree days 0  
Cooling Degree Days 8 11  
Month to date cooling degree days 104  
Year to date cooling degree days 4176  
Growing Degree Days 22 (Base 50)    
Moisture  
Dew Point 63 °F    
Average Humidity 72    
Maximum Humidity 97    
Minimum Humidity 49    
Precipitation  
Precipitation 0.00 in 0.12 in 3.57 in (1962)
Month to date precipitation 1.20  
Year to date precipitation 57.79  
Snow  
Snow 0.00 in - - ()
Month to date snowfall  
Since 1 July snowfall  
Since 1 September snowfall  
Snow Depth -    
Sea Level Pressure  
Sea Level Pressure 29.95 in    
Wind  
Wind Speed 4 mph (NNW)    
Max Wind Speed 14 mph    
Max Gust Speed 25 mph    
Visibility 10 miles    
Events      
T = Trace of Precipitation, MM = Missing Value Source: NWS Daily Summary

Daily Weather History Graph

Daily Weather History Graph

Search for Another Location

Airport or City:

Trip Planner

Search our weather history database for the weather conditions in past years. The results will help you decide how hot, cold, wet, or windy it might be!

Date:

Astronomy

Nov. 09, 2011 Rise Set
Actual Time 6:34 AM EST 5:35 PM EST
Civil Twilight 6:11 AM EST 5:59 PM EST
Nautical Twilight 5:43 AM EST 6:27 PM EST
Astronomical Twilight 5:16 AM EST 6:54 PM EST
Moon 4:47 PM EST (11/9) 5:30 AM EST (11/9)
Length of Visible Light 11h 48m
Length of Day
11h 00m
Waxing Gibbous, 99% of the Moon is Illuminated
Nov 9
Waxing Gibbous
Nov 10
Full
Nov 18
Last Quarter
Nov 25
New
Dec 2
First Quarter

Hourly Weather History & Observations

Time (EST) Temp. Heat Index Dew Point Humidity Pressure Visibility Wind Dir Wind Speed Gust Speed Precip Events Conditions
12:53 AM 63.0 °F - 62.1 °F 97% 29.97 in 10.0 mi Calm Calm - N/A   Clear
1:53 AM 64.0 °F - 62.1 °F 93% 29.95 in 10.0 mi Calm Calm - N/A   Clear
2:53 AM 66.0 °F - 64.0 °F 93% 29.94 in 10.0 mi Calm Calm - 0.00 in   Scattered Clouds
3:53 AM 64.0 °F - 62.1 °F 93% 29.93 in 10.0 mi Calm Calm - N/A   Mostly Cloudy
4:53 AM - - - N/A% 29.95 in 10.0 mi West 3.5 mph - N/A   Overcast
5:53 AM - - - N/A% 29.96 in 10.0 mi Calm Calm - N/A   Mostly Cloudy
6:53 AM - - - N/A% 29.99 in 10.0 mi NW 5.8 mph - N/A   Partly Cloudy
7:53 AM - - - N/A% 30.01 in 10.0 mi NNW 4.6 mph - N/A   Scattered Clouds
8:53 AM 69.8 °F - 66.2 °F 88% 30.02 in 10.0 mi North 9.2 mph - N/A   Mostly Cloudy
9:53 AM 75.0 °F - 66.9 °F 76% 30.02 in 10.0 mi North 6.9 mph - N/A   Mostly Cloudy
10:53 AM 79.0 °F - 66.0 °F 64% 30.00 in 10.0 mi NNW 10.4 mph 25.3 mph N/A   Partly Cloudy
11:53 AM 80.1 °F 82.1 °F 66.0 °F 62% 29.97 in 10.0 mi North 13.8 mph - N/A   Partly Cloudy
12:53 PM 82.4 °F 83.9 °F 64.4 °F 54% 29.94 in 10.0 mi NNW 9.2 mph - N/A   Scattered Clouds
1:53 PM 80.6 °F 81.8 °F 62.6 °F 54% 29.91 in 10.0 mi North 11.5 mph - N/A   Mostly Cloudy
2:53 PM 81.0 °F 81.9 °F 62.1 °F 52% 29.90 in 10.0 mi North 9.2 mph - N/A   Mostly Cloudy
3:53 PM 81.0 °F 81.6 °F 60.1 °F 49% 29.89 in 10.0 mi North 13.8 mph - N/A   Scattered Clouds
4:53 PM 79.0 °F - 60.1 °F 52% 29.90 in 10.0 mi NNW 11.5 mph - N/A   Clear
5:53 PM 75.0 °F - 61.0 °F 62% 29.90 in 10.0 mi NNW 6.9 mph - N/A   Clear
6:53 PM 73.9 °F - 63.0 °F 68% 29.91 in 10.0 mi North 9.2 mph - N/A   Clear
7:53 PM 73.0 °F - 64.0 °F 73% 29.92 in 10.0 mi North 5.8 mph - N/A   Clear
8:53 PM 72.0 °F - 64.0 °F 76% 29.92 in 10.0 mi NNE 5.8 mph - N/A   Clear
9:53 PM 71.1 °F - 64.0 °F 78% 29.93 in 10.0 mi NNE 4.6 mph - N/A   Clear
10:53 PM 69.1 °F - 63.0 °F 81% 29.93 in 10.0 mi North 4.6 mph - N/A   Clear
11:53 PM 69.1 °F - 63.0 °F 81% 29.93 in 10.0 mi North 6.9 mph - N/A   Clear